This is the latest recevied weather packets stored in our database for station/object W4JCW. If no packets are shown the sender has not sent any weather packets the latest 10 day(s).
| Time | Temp. | Humidity | Pressure | Rain* | Wind** | Luminosity | Snow |
|---|---|---|---|---|---|---|---|
| 1777238907 | 21.67° C | 69% | 1012.3 hPa | 0 mm | - | 128 W/m² | - |
| 1777238604 | 21.67° C | 69% | 1012.2 hPa | 0 mm | - | 172 W/m² | - |
| 1777238301 | 21.67° C | 68% | 1012.2 hPa | 0 mm | - | 121 W/m² | - |
| 1777237998 | 21.67° C | 68% | 1011.9 hPa | 0 mm | - | 131 W/m² | - |
| 1777237693 | 21.67° C | 67% | 1012 hPa | 0 mm | - | 388 W/m² | - |
| 1777237391 | 22.22° C | 68% | 1012 hPa | 0 mm | - | 130 W/m² | - |
| 1777237088 | 22.22° C | 68% | 1011.8 hPa | 0 mm | - | 150 W/m² | - |
| 1777236786 | 22.22° C | 68% | 1011.8 hPa | 0 mm | - | 139 W/m² | - |
| 1777236485 | 22.78° C | 68% | 1011.8 hPa | 0 mm | - | 133 W/m² | - |
| 1777236182 | 22.78° C | 67% | 1011.7 hPa | 0 mm | - | 199 W/m² | - |
| 1777235877 | 22.78° C | 68% | 1011.6 hPa | 0 mm | - | 708 W/m² | - |
| 1777235575 | 22.78° C | 68% | 1011.6 hPa | 0 mm | - | 257 W/m² | - |
| 1777235270 | 22.78° C | 68% | 1011.4 hPa | 0 mm | - | 232 W/m² | - |
| 1777234967 | 22.78° C | 67% | 1011.6 hPa | 0 mm | - | 215 W/m² | - |
| 1777234663 | 23.33° C | 67% | 1011.4 hPa | 0 mm | - | 188 W/m² | - |
| 1777234359 | 23.33° C | 66% | 1011.5 hPa | 0 mm | - | 238 W/m² | - |
| 1777234055 | 23.33° C | 67% | 1011.4 hPa | 0 mm | - | 208 W/m² | - |
| 1777233751 | 23.33° C | 67% | 1011.3 hPa | 0 mm | - | 850 W/m² | - |
| 1777233447 | 23.33° C | 67% | 1011.3 hPa | 0 mm | - | 363 W/m² | - |
| 1777233146 | 23.33° C | 68% | 1011.2 hPa | 0 mm | - | 416 W/m² | - |
| 1777232843 | 23.33° C | 67% | 1011.2 hPa | 0 mm | - | 299 W/m² | - |
| 1777232541 | 22.78° C | 68% | 1011.1 hPa | 0 mm | - | 387 W/m² | - |
| 1777232240 | 22.78° C | 68% | 1011 hPa | 0 mm | - | 298 W/m² | - |
| 1777231935 | 22.78° C | 68% | 1011.3 hPa | 0 mm | - | 405 W/m² | - |
| 1777231632 | 22.78° C | 70% | 1011.7 hPa | 0 mm | - | 542 W/m² | - |
* Rain latest hour (hover to see other rain measurements)
** Current wind speed in m/s (hover to see current wind gust speed)